Location: Unspecified
(0.0000°N, 0.0000°E)
Time: 13:03:49
(UTC+00:00)

Hubble Space Telescope - Pass Details

Date: 07 May 2026
Orbit: 473 x 476 km, 28.5° (Epoch: 18 May)

Event Time Altitude Azimuth Distance (km) Brightness Sun altitude
Rises 19:21:49 0° 322° (NW) 2,496 5.1 -20.3°
Reaches altitude 10° 19:24:24 10° 340° (NNW) 1,622 3.7 -21.0°
Enters shadow 19:26:49 20° 19° (NNE) 1,143 2.4 -21.5°
